Other Surface Observations
Issued by NWS

Home | Current Version | Previous Version | Text Only | Print | Product List | Glossary On
Versions: 1 2 3 4 5 6 7 8 9 10 11 12 13 14 15 16 17 18 19 20 21 22 23 24 25 26 27 28 29 30 31 32 33 34 35 36 37 38 39 40 41 42 43 44 45 46 47 48 49 50
000
SXUS52 KTAE 271018
OSOTAE
OSOTAE
North Florida/South Alabama/Southwest Georgia Weather Roundup
National Weather Service Tallahassee Florida
600 AM EDT FRI MAR 27 2015

Note: "fair" indicates few or no clouds below 12,000 feet with no
significant weather and/or obstructions to visibility.

!FLZ017-115-028-034-025-271100
...North Florida...

CITY           SKY/WX    TMP DP  RH WIND       PRES   REMARKS
TALLAHASSEE    DRIZZLE   64  62  93 SW3       29.79R FOG
APALACHICOLA   CLOUDY    70  65  84 W8        29.80R
PERRY          CLOUDY    64  64  98 SW3       29.80R
CROSS CITY       N/A     66  64  93 W5        29.80R
JACKSONVILLE   CLOUDY    64  63  96 SW8       29.78S
$$

!FLZ112-006-005-002-011-271100
...Florida Panhandle...

CITY           SKY/WX    TMP DP  RH WIND       PRES   REMARKS
MARIANNA       CLOUDY    64  64 100 W8        29.78R
BONIFAY        CLOUDY    63  62  97 SW3       29.79S
PANAMA CITY NW CLOUDY    65  63  93 W6        29.79S
TYNDALL AFB    DRIZZLE   66  63  88 W13       29.79S
TYND DRONE APT FAIR      68  64  88 W6G18     29.79S
DE FUNIAK SPR  NOT AVBL
EGLIN AFB      DRIZZLE   64  63  94 NW12G24   29.79S FOG
DESTIN         CLOUDY    67  62  84 NW7       29.80S
HURLBURT       CLOUDY    61  54  77 NW13      29.80R
CRESTVIEW      CLOUDY    59  55  87 NW12      29.83R
PENSACOLA      MOCLDY    57  53  86 N13G22    29.83R
$$

!ALZ063-066-271100
...South Alabama...

CITY           SKY/WX    TMP DP  RH WIND       PRES   REMARKS
DOTHAN         CLOUDY    64  61  90 NW12      29.80S
OZARK CAIRNS   CLOUDY    61  56  83 NW12G20   29.78R
FT RUCKER HELI MOCLDY    59  54  83 NW12      29.79R
RUCKER HELI 3  MOCLDY    57  54  88 NW13G24   29.81S
RUCKER HELI 2  CLOUDY    59  55  87 VRB7      29.72F
FLORALA APT    CLOUDY    57  54  89 NW8       29.84R
ANDALUSIA      CLOUDY    60  52  74 N14       29.82F
TROY           CLOUDY    56  50  80 NW12      29.82S
EUFALA         CLOUDY    61  57  88 W8G20     29.76R
MOBILE         CLOUDY    52  50  93 NW17G23   29.89S
$$

!GAZ120>161-271100
...Southwest and South Central Georgia...

CITY           SKY/WX    TMP DP  RH WIND       PRES   REMARKS
THOMASVILLE    CLOUDY    64 N/A N/A SW5       29.79R
BAINBRIDGE     CLOUDY    66  64  94 W7        29.78R
MOODY AFB      CLOUDY    64  63  94 SW8       29.77S
VALDOSTA       CLOUDY    64  64 100 VRB3      29.78S
MOULTRIE       MOCLDY    63 N/A N/A SW3       29.78R
BLAKELY        CLOUDY    64  64 100 W5        29.77S
ALBANY         CLOUDY    64  62  93 SW7       29.77S
TIFTON         MOCLDY    62  62  99 SW6       29.76S
FITZGERALD     CLOUDY    64  62  91 SW6       29.77F
CORDELE        CLOUDY    65  62  89 SW8       29.75S
AMERICUS       RAIN      63  63 100 SW6       29.76R
HOMERVILLE     CLOUDY    64  64 100 W8        29.78S
$$

!GMZ750-755-770-775-271100
...Coastal and Buoy Obs...

STATION/POSITION TIME  TEMP    WIND        PRES    VSBY  WAVE
                       AIR SEA DIR/SP/G                  HT/PER
                 (UTC) (F)     (DEG/KT/KT) (MB)    (MI)  (FT/S)
KEATON BEACH     1000   68     240/ 13/ 15 1009.2R
CEDAR KEY        1000   70     210/ 12/ 16 1009.5R
C TOWER          1000   69     270/ 19/ 21 1009.2R
APALACHICOLA BUO 0950   72 71  220/ 14/ 17 1009.8R         3/ 6
PANAMA CITY BUOY 0950   73 76  290/ 21/ 27 1010.0R         5/ 5
MOBILE BUOY      0950   65 73  320/ 19/ 21 1010.8F         3/ 4
ORANGE BCH AL BU 0950   62 68  350/ 19/ 21 1009.0R         4/ 6
$$



USA.gov is the U.S. government's official web portal to all federal, state and local government web resources and services.